Current Version              Previous Version:    01  02  03  04  05  06  07  08  09  10  11  12  13  14  15  16  17  18  19  20  21  22  23  24  25  26  27  28  29  30  
   31  32  33  34  35  36  37  38  39  40  41  42  43  44  45  46  47  48  49  50  51  52  53  54  55  56  57  58  59  60  

[Printable]
926
ASUS44 KFWD 202315
RWRTX
NORTH TEXAS HOURLY WEATHER ROUNDUP
NATIONAL WEATHER SERVICE FORT WORTH TX
600 PM CDT WED AUG 20 2014

NOTE: "FAIR" INDICATES FEW OR NO CLOUDS BELOW 12,000 FEET WITH NO
SIGNIFICANT WEATHER AND/OR OBSTRUCTIONS TO VISIBILITY.

TXZ118-119-210000-
DALLAS/FORT WORTH METROPLEX

CITY           SKY/WX    TMP DP  RH WIND       PRES   REMARKS
DFW AIRPORT    MOSUNNY   97  65  34 S20G26    29.88S HX  99
DALLAS LOVE    MOSUNNY   97  65  34 SE16      29.88F HX  99
FTW MEACHAM    SUNNY     98  64  32 S15       29.87S HX 100
DAL-EXECUTIVE  SUNNY     97  64  33 S10G22    29.89S HX  99
FTW-ALLIANCE   MOSUNNY   96  63  33 S14G22    29.87S HX  97
FTW-NAS-JRB    MOSUNNY  101  61  26 SE16      29.91S HX 102
FTW-SPINKS     MOSUNNY   97  63  32 SE9G21    29.90S HX  98
ARLINGTON      MOSUNNY   96  64  34 SE15      29.88F HX  98
GRAND PRAIRIE  SUNNY    N/A N/A N/A SE9G16    29.89F
ADDISON        MOSUNNY   95  63  34 S13G29    29.90S HX  96
MESQUITE       MOSUNNY   97  64  34 SE12G18   29.90S HX  99
LANCASTER      SUNNY     97  62  30 SE15      29.90F HX  98
$$

TXZ091>094-102>105-117-120-121-131>134-210000-
NORTH CENTRAL TEXAS

CITY           SKY/WX    TMP DP  RH WIND       PRES   REMARKS
SHRMAN/DENISON SUNNY     94  63  35 S15       29.91S HX  96
GAINESVILLE    SUNNY     91  67  44 SE16G22   29.91S HX  95
BOWIE          SUNNY     95  62  32 S13G21    29.87F HX  96
BRIDGEPORT     SUNNY     97  55  24 S13G18    29.88S HX  95
DECATUR        SUNNY     94  62  34 S12       29.89S HX  94
DENTON         SUNNY     96  62  32 S17G28    29.88S HX  97
MCKINNEY       SUNNY     93  67  42 SE16      29.90S HX  96
GREENVILLE     MOSUNNY   93  64  38 SE12      29.93R HX  95
ROCKWALL       SUNNY     94  70  45 SE13G20   29.90S HX 100
TERRELL        SUNNY     97  66  36 S15       29.92S HX 100
WAXAHACHIE     MOSUNNY   96  60  30 S13G18    29.90F HX  96
CLEBURNE       SUNNY     95  64  36 SE17      29.90S HX  97
GRANBURY       SUNNY    100  59  25 SE15      29.88R HX  99
$$

TXZ083>090-098>101-113>116-127>130-139>142-154-155-210000-
WESTERN NORTH TEXAS

CITY           SKY/WX    TMP DP  RH WIND       PRES   REMARKS
WICHITA FALLS  MOSUNNY  100  56  23 S15G28    29.82S HX  99
WF-KICKAPOO    SUNNY    101  51  19 S14G21    29.84S HX  98
VERNON         SUNNY    100  58  24 S15G22    29.82S HX  99
ABILENE        SUNNY     95  60  31 S20       29.88F HX  95
ABILENE-DYESS  MOSUNNY   94  65  38 SE18G24   29.87F HX  96
BRECKENRIDGE   SUNNY     99  53  21 SE14G22   29.85F HX  96
GRAHAM         SUNNY     98  57  25 SE13G22   29.83F HX  97
MINERAL WELLS  SUNNY     97  59  28 S9G21     29.86S HX  96
STEPHENVILLE   SUNNY     96  58  27 S7G17     29.92S HX  94
COMANCHE       SUNNY     96  57  26 SE16      29.89F HX  95
BROWNWOOD      SUNNY     97  54  23 S13G23    29.89S HX  94
COLEMAN        SUNNY     92  58  32 S16       29.90S HX  91
BRADY          SUNNY     93  61  33 SE12      29.92R HX  93
$$

TXZ143>147-156>162-174-175-210000-
CENTRAL TEXAS

CITY           SKY/WX    TMP DP  RH WIND       PRES   REMARKS
WACO           MOSUNNY   98  64  32 S12       29.88F HX 100
WACO-TSTC      MOSUNNY  100  61  27 S12       29.88  HX 101
WACO-MCGREGOR  SUNNY    100  63  28 S13       29.88S HX 102
HILLSBORO      MOSUNNY   98  62  30 SE14      29.90S HX  98
CORSICANA      SUNNY     96  65  35 SE16G22   29.91F HX  98
MEXIA          SUNNY     94  70  44 SE13G18   29.91R HX 100
HEARNE           N/A     87  64  46 E6        29.92R
CAMERON        MOSUNNY   93  67  42 SE18G25   29.89R HX  97
TEMPLE         SUNNY     99  61  28 SE10G20   29.89R HX  99
KILLEEN        MOSUNNY   95  63  34 SE15G21   29.89S HX  96
KILLEEN-SKYLRK SUNNY     99  63  30 S15       29.89S HX 100
FORT HOOD      SUNNY     99  62  29 SE17G25   29.89S HX 100
GATESVILLE     SUNNY     99  63  30 SE8       29.91S HX 100
HAMILTON       MOSUNNY   97  58  27 SE22G28   29.91S HX  96
LAMPASAS       MOSUNNY   96  62  31 SE12G18   29.89S HX  97
$$

TXZ095>097-106>112-122>126-135>138-148>153-164>167-210000-
EAST TEXAS

CITY           SKY/WX    TMP DP  RH WIND       PRES   REMARKS
PARIS          SUNNY     93  70  46 SE13      29.94S HX  99
SULPHUR SPRNGS MOSUNNY   95  66  39 S10G17    29.96R HX  98
CLARKSVILLE    MOSUNNY   94  67  41 SE9       29.95R HX  98
MOUNT PLEASANT MOSUNNY   94  67  41 SE13      29.96R HX  98
GILMER         SUNNY     93  70  46 SE9       29.97S HX  99
MINEOLA        CLOUDY    93  68  43 SE7       29.95S HX  97
TYLER          SUNNY     94  71  47 SE14      29.95R HX 101
LONGVIEW       MOSUNNY   93  71  48 S13       29.96R HX 100
MARSHALL       MOSUNNY   94  73  50 S9        30.00R HX 102
ATHENS         SUNNY     93  70  46 S10       29.92F HX  99
PALESTINE      SUNNY     93  74  53 SE12      29.95S HX 102
JACKSONVILLE   PTSUNNY   87  72  61 SE15G23   30.01R THUNDER HX  92
HENDERSON      MOSUNNY   92  70  49 S7        29.99R HX  97
NACOGDOCHES    PTSUNNY   82  72  69 SE6       30.00R
LUFKIN         CLOUDY    81  73  76 E8        29.99F
$$

SUPPLEMENTAL OBSERVATIONS (CENTRAL)

CITY           SKY/WX    TMP DP  RH WIND       PRES   REMARKS
LAKE TEXOMA      N/A     93  64  38 S10         N/A  HX  95
CADDO GRASSLND   N/A     93  64  38 S8G16       N/A  HX  95
PAT MAYSE LAKE   N/A     91  68  46 SE14        N/A  HX  95
GREENVILLE       N/A     93  68  43 S9G17       N/A  HX  97
CEDAR HILL       N/A     97  64  34 SE10G18     N/A  HX  99
ATHENS           N/A     95  70  43 S12         N/A  HX 101
PALESTINE        N/A     88  75  66 S6          N/A  HX  97
MCGREGOR         N/A    N/A N/A N/A S10G18      N/A
TEMPLE           N/A     97  59  28 S12G22      N/A  HX  96
$$

SUPPLEMENTAL OBSERVATIONS (WEST)

CITY           SKY/WX    TMP DP  RH WIND       PRES   REMARKS
MILLERS CREEK    N/A    N/A N/A N/A S16G25      N/A
POSSUM KINGDOM   N/A     99  57  25 S12G21      N/A  HX  97
GRANBURY         N/A     99  57  25 SE15G24     N/A  HX  97
HAMBY            N/A     95  59  30 S17G24      N/A  HX  94
IVIE RESERVOIR   N/A     97  57  26 SE14        N/A  HX  95
COLORADO BEND    N/A     95  57  28 S10G20      N/A  HX  94
$$

SUPPLEMENTAL OBSERVATIONS (EAST)

CITY           SKY/WX    TMP DP  RH WIND       PRES   REMARKS
CLARKSVILLE      N/A     91  68  46 SE9         N/A  HX  95
TEXARKANA        N/A     93  70  46 S2          N/A  HX  99
LINDEN           N/A     95  68  41 S3          N/A  HX  99
CADDO LAKE       N/A     93  70  46 S3          N/A  HX  99
GILMER           N/A     93  66  40 S8          N/A  HX  96
HENDERSON        N/A     91  70  49 S12         N/A  HX  97
N SABINE NF      N/A     75  68  78 MISG        N/A
S SABINE NF      N/A     72  68  88 E2          N/A
$$

SUPPLEMENTAL OBSERVATIONS ARE A COLLECTION OF AUTOMATED INSTRUMENTS
THAT ARE MAINTAINED BY A VARIETY OF FEDERAL AND STATE AGENCIES.
CERTAIN ELEMENTS...SUCH AS HUMIDITY VALUES AND SUSTAINED WIND
SPEEDS...MAY BE APPROXIMATED.